Hourly Weather Guadix

Today, 5 August, Wednesday

Time Temperature Precipitation Wind Pressure Humidity
00:00 +22°C° 0 mm 0 mps 680 mmHg 71%
01:00 +21°C° 0 mm 0 mps 680 mmHg 72%
02:00 +21°C° 0 mm 0 mps 680 mmHg 74%
03:00 +20°C° 0 mm 0 mps 680 mmHg 76%
04:00 +22°C° 0 mm 1 mps 680 mmHg 75%
05:00 +22°C° 0 mm 1 mps 680 mmHg 74%
06:00 +23°C° 0 mm 1 mps 680 mmHg 73%
07:00 +25°C° 0 mm 1 mps 681 mmHg 63%
08:00 +27°C° 0 mm 1 mps 681 mmHg 53%
09:00 +29°C° 0 mm 1 mps 682 mmHg 43%
10:00 +30°C° 0 mm 2 mps 682 mmHg 39%
11:00 +32°C° 0 mm 2 mps 682 mmHg 34%
12:00 +34°C° 0 mm 3 mps 682 mmHg 30%
13:00 +34°C° 0 mm 3 mps 682 mmHg 30%
14:00 +34°C° 0 mm 3 mps 681 mmHg 30%
15:00 +35°C° 0 mm 3 mps 681 mmHg 29%
16:00 +34°C° 0 mm 3 mps 681 mmHg 31%
17:00 +34°C° 0 mm 3 mps 681 mmHg 33%
18:00 +33°C° 0 mm 3 mps 681 mmHg 35%
19:00 +30°C° 0 mm 2 mps 681 mmHg 40%
20:00 +28°C° 0 mm 2 mps 681 mmHg 46%
21:00 +26°C° 0 mm 1 mps 681 mmHg 51%
22:00 +26°C° 0 mm 1 mps 681 mmHg 53%
23:00 +25°C° 0 mm 1 mps 681 mmHg 54%

Tomorrow, 6 August, Thursday

Time Temperature Precipitation Wind Pressure Humidity
00:00 +25°C° 0 mm 1 mps 681 mmHg 56%
01:00 +24°C° 0 mm 1 mps 681 mmHg 56%
02:00 +24°C° 0 mm 1 mps 680 mmHg 57%
03:00 +23°C° 0 mm 1 mps 680 mmHg 57%
04:00 +23°C° 0 mm 1 mps 680 mmHg 56%
05:00 +23°C° 0 mm 1 mps 681 mmHg 55%
06:00 +23°C° 0 mm 2 mps 681 mmHg 53%
07:00 +26°C° 0 mm 2 mps 682 mmHg 46%
08:00 +28°C° 0 mm 2 mps 682 mmHg 38%
09:00 +31°C° 0 mm 3 mps 683 mmHg 30%
10:00 +33°C° 0 mm 3 mps 683 mmHg 27%
11:00 +35°C° 0 mm 3 mps 683 mmHg 24%
12:00 +36°C° 0 mm 4 mps 684 mmHg 21%
13:00 +37°C° 0 mm 4 mps 683 mmHg 20%
14:00 +37°C° 0 mm 4 mps 683 mmHg 20%
15:00 +39°C° 0 mm 5 mps 683 mmHg 19%
16:00 +37°C° 0 mm 4 mps 683 mmHg 21%
17:00 +36°C° 0 mm 4 mps 683 mmHg 22%
18:00 +35°C° 0 mm 3 mps 682 mmHg 24%
19:00 +33°C° 0 mm 3 mps 682 mmHg 28%
20:00 +30°C° 0 mm 2 mps 683 mmHg 33%
21:00 +27°C° 0 mm 2 mps 683 mmHg 38%
22:00 +27°C° 0 mm 2 mps 683 mmHg 40%
23:00 +26°C° 0 mm 2 mps 683 mmHg 42%

Day after tomorrow, 7 August, Friday

Time Temperature Precipitation Wind Pressure Humidity
00:00 +25°C° 0 mm 1 mps 683 mmHg 44%
01:00 +25°C° 0 mm 1 mps 682 mmHg 44%
02:00 +24°C° 0 mm 1 mps 682 mmHg 44%
03:00 +24°C° 0 mm 1 mps 682 mmHg 44%
04:00 +24°C° 0 mm 2 mps 682 mmHg 43%
05:00 +24°C° 0 mm 2 mps 682 mmHg 42%
06:00 +25°C° 0 mm 2 mps 683 mmHg 41%
07:00 +27°C° 0 mm 2 mps 683 mmHg 36%
08:00 +30°C° 0 mm 2 mps 684 mmHg 30%
09:00 +32°C° 0 mm 2 mps 685 mmHg 24%
10:00 +35°C° 0 mm 3 mps 685 mmHg 22%
11:00 +36°C° 0 mm 3 mps 685 mmHg 20%
12:00 +38°C° 0 mm 3 mps 686 mmHg 18%
13:00 +38°C° 0 mm 3 mps 685 mmHg 18%
14:00 +38°C° 0 mm 3 mps 685 mmHg 17%
15:00 +39°C° 0 mm 3 mps 685 mmHg 17%
16:00 +38°C° 0.1 mm 3 mps 685 mmHg 19%
17:00 +37°C° 0.1 mm 3 mps 684 mmHg 21%
18:00 +36°C° 0.1 mm 2 mps 684 mmHg 22%
19:00 +34°C° 0 mm 2 mps 684 mmHg 28%
20:00 +30°C° 0 mm 1 mps 684 mmHg 34%
21:00 +28°C° 0 mm 1 mps 684 mmHg 40%
22:00 +27°C° 0 mm 1 mps 684 mmHg 42%
23:00 +26°C° 0 mm 1 mps 684 mmHg 44%

8 August, Saturday

Time Temperature Precipitation Wind Pressure Humidity
00:00 +25°C° 0 mm 1 mps 684 mmHg 46%
01:00 +25°C° 0 mm 1 mps 684 mmHg 46%
02:00 +22°C° 0 mm 0 mps 683 mmHg 46%
03:00 +22°C° 0 mm 0 mps 683 mmHg 46%
04:00 +22°C° 0 mm 0 mps 683 mmHg 47%
05:00 +22°C° 0 mm 0 mps 683 mmHg 47%
06:00 +22°C° 0 mm 0 mps 683 mmHg 47%
07:00 +26°C° 0 mm 1 mps 684 mmHg 42%
08:00 +29°C° 0 mm 1 mps 684 mmHg 36%
09:00 +31°C° 0 mm 1 mps 685 mmHg 30%
10:00 +33°C° 0 mm 1 mps 685 mmHg 27%
11:00 +35°C° 0 mm 2 mps 685 mmHg 24%
12:00 +37°C° 0 mm 2 mps 686 mmHg 21%
13:00 +37°C° 0 mm 3 mps 685 mmHg 20%
14:00 +38°C° 0 mm 3 mps 685 mmHg 18%
15:00 +38°C° 0 mm 4 mps 685 mmHg 17%
16:00 +38°C° 0 mm 4 mps 684 mmHg 18%
17:00 +37°C° 0 mm 4 mps 684 mmHg 19%
18:00 +36°C° 0 mm 4 mps 684 mmHg 20%
19:00 +33°C° 0 mm 3 mps 683 mmHg 24%
20:00 +30°C° 0 mm 2 mps 683 mmHg 29%
21:00 +28°C° 0 mm 1 mps 683 mmHg 33%
22:00 +27°C° 0 mm 1 mps 683 mmHg 34%
23:00 +26°C° 0 mm 1 mps 683 mmHg 36%

9 August, Sunday

Time Temperature Precipitation Wind Pressure Humidity
00:00 +23°C° 0 mm 0 mps 682 mmHg 37%
01:00 +23°C° 0 mm 0 mps 682 mmHg 38%
02:00 +24°C° 0 mm 1 mps 681 mmHg 39%
03:00 +23°C° 0 mm 1 mps 681 mmHg 40%
04:00 +21°C° 0 mm 0 mps 681 mmHg 40%
05:00 +21°C° 0 mm 0 mps 681 mmHg 41%
06:00 +21°C° 0 mm 0 mps 681 mmHg 41%
07:00 +26°C° 0 mm 1 mps 682 mmHg 35%
08:00 +29°C° 0 mm 1 mps 683 mmHg 29%
09:00 +32°C° 0 mm 1 mps 683 mmHg 24%
10:00 +33°C° 0 mm 1 mps 683 mmHg 21%
11:00 +36°C° 0 mm 2 mps 683 mmHg 19%
12:00 +37°C° 0 mm 3 mps 684 mmHg 17%
13:00 +37°C° 0 mm 4 mps 683 mmHg 16%
14:00 +38°C° 0 mm 4 mps 683 mmHg 15%
15:00 +39°C° 0 mm 5 mps 682 mmHg 14%
16:00 +37°C° 0 mm 5 mps 682 mmHg 15%
17:00 +37°C° 0 mm 4 mps 682 mmHg 15%
18:00 +36°C° 0 mm 4 mps 682 mmHg 16%
19:00 +33°C° 0 mm 3 mps 681 mmHg 20%
20:00 +30°C° 0 mm 2 mps 681 mmHg 24%
21:00 +27°C° 0 mm 1 mps 681 mmHg 28%
22:00 +27°C° 0 mm 1 mps 680 mmHg 30%
23:00 +26°C° 0 mm 1 mps 680 mmHg 31%

10 August, Monday

Time Temperature Precipitation Wind Pressure Humidity
00:00 +23°C° 0 mm 0 mps 680 mmHg 32%
01:00 +23°C° 0 mm 0 mps 680 mmHg 32%
02:00 +23°C° 0 mm 0 mps 679 mmHg 33%
03:00 +23°C° 0 mm 0 mps 679 mmHg 33%
04:00 +26°C° 0 mm 1 mps 679 mmHg 34%
05:00 +26°C° 0 mm 1 mps 679 mmHg 35%
06:00 +26°C° 0 mm 1 mps 680 mmHg 37%
07:00 +28°C° 0 mm 1 mps 680 mmHg 32%
08:00 +30°C° 0 mm 2 mps 681 mmHg 28%
09:00 +34°C° 0 mm 2 mps 681 mmHg 24%
10:00 +35°C° 0 mm 2 mps 681 mmHg 23%
11:00 +36°C° 0 mm 3 mps 681 mmHg 23%
12:00 +37°C° 0 mm 4 mps 681 mmHg 22%
13:00 +37°C° 0.1 mm 4 mps 681 mmHg 21%
14:00 +38°C° 0.1 mm 4 mps 681 mmHg 21%
15:00 +39°C° 0.1 mm 5 mps 680 mmHg 20%
16:00 +37°C° 0 mm 4 mps 680 mmHg 22%
17:00 +36°C° 0 mm 4 mps 680 mmHg 24%
18:00 +35°C° 0 mm 3 mps 680 mmHg 27%
19:00 +33°C° 0 mm 3 mps 680 mmHg 33%
20:00 +30°C° 0 mm 2 mps 680 mmHg 40%
21:00 +27°C° 0 mm 1 mps 680 mmHg 47%
22:00 +27°C° 0.4 mm 1 mps 680 mmHg 48%
23:00 +27°C° 0.4 mm 1 mps 680 mmHg 50%
Show more